[[{"header":{"parameterUnit":"m.s-1","parameterCategory":1,"la1":30.2991,"la2":30.254,"lo1":-89.0895,"lo2":-89.0444,"dx":0.0017,"dy":0.0017,"nx":28,"ny":28,"refTime":"2022-11-07T09:00:00:Z","depth":0,"parameterNumber":2,"parameterNumberName":"U-component_of_WINDS"},"data":[0,0,0,0,0,0,0,0,0,0,0,0,0,0,0,0,0,0,0,0,0,0,0,0,0,0,0,0,0,0,0,0,0,0,0,0,0,0,0,0,0,0,0,0,0,0,0,0,0,0,0,0,0,0,0,0,0,0,-0.928,-0.9281,0,-0.9368,-0.9369,-0.937,-0.9501,-0.9503,-0.9506,-0.9508,-0.9595,-0.9596,-0.9596,0,0,0,0,0,0,0,0,0,0,0,0,0,-0.9225,-0.9225,-0.928,-0.9281,-0.9282,-0.9367,-0.9369,-0.937,-0.95,-0.9503,-0.9506,-0.9509,-0.9595,-0.9596,-0.9596,0,0,0,0,0,0,0,0,0,0,0,0,0,-0.9274,-0.9225,-0.928,-0.9358,-0.9365,-0.9367,-0.9369,-0.937,-0.95,-0.9503,-0.9507,-0.951,-0.9595,-0.9596,-0.9596,-0.9528,0,0,-0.9597,-0.9597,0,0,0,0,0,0,0,0,-0.9271,-0.9276,-0.9345,-0.9352,-0.9361,-0.9427,-0.9382,-0.9423,-0.9499,-0.9449,-0.9508,-0.9512,-0.9536,-0.9542,-0.955,-0.9532,-0.9536,-0.9597,-0.9597,-0.9597,-0.9597,0,0,0,0,0,0,0,-0.9268,-0.9273,-0.9315,-0.9346,-0.9356,-0.9388,-0.9399,-0.939,-0.9472,-0.9453,-0.9463,-0.9472,-0.9541,-0.955,-0.9553,-0.9537,-0.9597,-0.9597,-0.9597,-0.9597,-0.9468,-0.9464,0,0,0,0,0,0,-0.9253,-0.9269,-0.9312,-0.9317,-0.9324,-0.9386,-0.9398,-0.9402,-0.9472,-0.9486,-0.9469,-0.9478,-0.9548,-0.9553,-0.9557,-0.9482,-0.9597,-0.9597,-0.9597,-0.9471,-0.9467,-0.9463,0,0,0,0,0,0,-0.9251,-0.9255,-0.9308,-0.9296,-0.9305,-0.9383,-0.9387,-0.9402,-0.9411,-0.9484,-0.9499,-0.9462,-0.9551,-0.9557,-0.9534,-0.9486,-0.9597,-0.9597,-0.9475,-0.947,-0.9465,-0.933,0,0,0,0,0,0,-0.9249,-0.9254,-0.9229,-0.9294,-0.9305,-0.9283,-0.9384,-0.9401,-0.9411,-0.9423,-0.9482,-0.9495,-0.9554,-0.9533,-0.9534,-0.9489,-0.9598,-0.948,-0.9473,-0.9467,-0.9339,-0.932,-0.9305,0,0,0,0,0,-0.9247,-0.9187,-0.9227,-0.9231,-0.9275,-0.928,-0.9287,-0.9356,-0.9407,-0.9382,-0.9429,-0.9493,-0.9492,-0.953,-0.9532,-0.9486,-0.9483,-0.9475,-0.9467,-0.9346,-0.9324,-0.9305,0,0,0,0,0,0,-0.9112,-0.9197,-0.9242,-0.9202,-0.9233,-0.9303,-0.9273,-0.933,-0.9347,-0.9358,-0.9443,-0.9455,-0.9422,-0.9453,-0.9493,-0.9424,-0.9498,-0.9489,-0.9405,-0.9384,-0.9368,-0.936,-0.9598,0,0,0,0,0,-0.9078,-0.9075,-0.915,-0.9107,-0.912,-0.9194,-0.9199,-0.925,-0.9285,-0.9299,-0.9345,-0.9376,-0.9384,-0.9386,-0.9397,-0.9345,-0.9359,-0.9315,-0.9298,-0.9283,-0.9274,-0.925,-0.923,-0.9436,-0.9436,-0.9437,0,0,-0.9007,-0.9053,-0.9046,-0.9081,-0.9111,-0.9106,-0.9204,-0.9194,-0.9191,-0.9297,-0.9279,-0.9314,-0.9355,-0.9317,-0.9303,-0.9342,-0.9222,-0.9273,-0.9261,-0.926,-0.9239,-0.922,-0.9202,-0.9431,-0.9432,-0.9433,0,0,-0.8874,-0.8909,-0.8877,-0.8906,-0.8951,-0.9001,-0.8993,-0.9055,-0.9082,-0.9066,-0.9145,-0.9144,-0.9154,-0.918,-0.9194,-0.9074,-0.9133,-0.9075,-0.8985,-0.896,-0.8943,-0.8929,-0.8885,-0.8869,-0.9067,-0.9067,-0.9067,0,-0.8779,-0.8775,-0.8854,-0.8839,-0.8852,-0.895,-0.8918,-0.8942,-0.8988,-0.8994,-0.9038,-0.9053,-0.9088,-0.9058,-0.9029,-0.9038,-0.9031,-0.9068,-0.894,-0.8926,-0.8915,-0.8873,-0.8857,-0.9059,-0.906,-0.9061,-0.9062,0,-0.8657,-0.8653,-0.8622,-0.8664,-0.8674,-0.8651,-0.8725,-0.8726,-0.8777,-0.8822,-0.8804,-0.885,-0.8871,-0.8869,-0.8918,-0.8846,-0.8868,-0.8924,-0.8999,-0.8886,-0.8849,-0.8834,-0.9049,-0.9051,-0.9054,-0.9055,0,0,-0.8438,-0.8526,-0.8513,-0.8534,-0.8592,-0.8591,-0.8573,-0.8595,-0.8593,-0.8622,-0.8608,-0.8616,-0.8669,-0.8686,-0.8739,-0.8717,-0.8618,-0.8777,-0.8779,-0.8744,-0.854,-0.8496,-0.8476,-0.8659,-0.8656,-0.8654,-0.8537,0,-0.8316,-0.8289,-0.836,-0.8316,-0.8313,-0.8407,-0.8391,-0.8425,-0.8467,-0.8471,-0.8519,-0.8522,-0.8592,-0.8603,-0.8585,-0.8633,-0.8578,-0.8644,-0.8646,-0.8645,-0.863,-0.8457,-0.841,-0.8296,-0.8523,-0.852,-0.8519,0,-0.8168,-0.819,-0.8146,-0.8207,-0.8209,-0.8193,-0.822,-0.8223,-0.8263,-0.8296,-0.8315,-0.8379,-0.8365,-0.8439,-0.8422,-0.8465,-0.8471,-0.8495,-0.8492,-0.8493,-0.8573,-0.8451,-0.8262,-0.8244,-0.8497,-0.8498,-0.85,0,-0.8011,-0.803,-0.8006,-0.8022,-0.8093,-0.808,-0.8109,-0.8154,-0.8163,-0.8186,-0.8193,-0.8214,-0.8225,-0.824,-0.8308,-0.8356,-0.8282,-0.8362,-0.8308,-0.8306,-0.8286,-0.8285,-0.8092,-0.8293,-0.8293,-0.8293,-0.8294,0,-0.7865,-0.7834,-0.7937,-0.7921,-0.789,-0.7972,-0.7938,-0.7977,-0.8016,-0.801,-0.8094,-0.8086,-0.8177,-0.8179,-0.8233,-0.821,-0.8215,-0.824,-0.8254,-0.8231,-0.8227,-0.8234,-0.8243,-0.8289,-0.829,-0.8291,-0.8292,0,-0.7683,-0.7751,-0.7731,-0.7801,-0.7818,-0.7791,-0.7852,-0.7841,-0.789,-0.7881,-0.7884,-0.796,-0.7968,-0.8038,-0.8061,-0.8097,-0.8053,-0.8083,-0.8038,-0.8047,-0.7989,-0.7992,-0.7791,-0.7768,-0.7985,-0.7983,-0.7981,0,-0.7584,-0.7562,-0.7631,-0.7633,-0.7658,-0.7661,-0.7671,-0.7753,-0.7759,-0.7806,-0.7788,-0.7803,-0.7819,-0.7827,-0.7885,-0.7903,-0.7933,-0.7862,-0.7936,-0.7914,-0.793,-0.7929,-0.7927,-0.7844,-0.7842,-0.7839,-0.7838,0,-0.74,-0.7436,-0.7447,-0.747,-0.748,-0.7503,-0.753,-0.7527,-0.7617,-0.7621,-0.763,-0.7642,-0.7667,-0.768,-0.7709,-0.774,-0.7802,-0.7814,-0.7802,-0.7777,-0.7751,-0.7763,-0.7992,-0.7818,-0.782,-0.7821,-0.7822,-0.7823,-0.7256,-0.7241,-0.7287,-0.7297,-0.7327,-0.7351,-0.7344,-0.7393,-0.7402,-0.7428,-0.7476,-0.7478,-0.7522,-0.7567,-0.7593,-0.7595,-0.7633,-0.7616,-0.7611,-0.7605,-0.7593,-0.7753,-0.7601,-0.7602,-0.7603,-0.7603,-0.7604,0,-0.7075,-0.711,-0.7119,-0.7155,-0.7163,-0.7224,-0.7258,-0.7261,-0.7261,-0.7297,-0.7311,-0.7322,-0.7336,-0.7396,-0.7416,-0.7407,-0.7437,-0.741,-0.741,-0.7416,-0.7559,-0.7566,-0.7385,-0.7385,-0.7385,-0.7385,-0.7385,-0.7385,-0.6981,-0.6959,-0.7,-0.6994,-0.703,-0.7032,-0.7046,-0.7069,-0.7098,-0.7106,-0.7119,-0.7158,-0.7203,-0.7228,-0.7244,-0.7261,-0.7264,-0.7227,-0.7253,-0.7385,-0.7406,-0.7426,-0.7433,-0.7227,-0.7227,-0.711,-0.7109,-0.7108]},{"header":{"parameterUnit":"m.s-1","parameterCategory":1,"la1":30.2991,"la2":30.254,"lo1":-89.0895,"lo2":-89.0444,"dx":0.0017,"dy":0.0017,"nx":28,"ny":28,"refTime":"2022-11-07T09:00:00:Z","depth":0,"parameterNumber":3,"parameterNumberName":"V-component_of_WINDS"},"data":[0,0,0,0,0,0,0,0,0,0,0,0,0,0,0,0,0,0,0,0,0,0,0,0,0,0,0,0,0,0,0,0,0,0,0,0,0,0,0,0,0,0,0,0,0,0,0,0,0,0,0,0,0,0,0,0,0,0,-2.4969,-2.4969,0,-2.5003,-2.5003,-2.5004,-2.5022,-2.5023,-2.5023,-2.5023,-2.5056,-2.5057,-2.5057,0,0,0,0,0,0,0,0,0,0,0,0,0,-2.4919,-2.492,-2.4969,-2.4969,-2.497,-2.5003,-2.5003,-2.5004,-2.5022,-2.5023,-2.5023,-2.5023,-2.5055,-2.5056,-2.5057,0,0,0,0,0,0,0,0,0,0,0,0,0,-2.4946,-2.492,-2.4969,-2.4983,-2.4985,-2.5003,-2.5003,-2.5004,-2.5022,-2.5023,-2.5023,-2.5023,-2.5055,-2.5056,-2.5058,-2.5063,0,0,-2.5061,-2.5062,0,0,0,0,0,0,0,0,-2.4944,-2.4948,-2.4981,-2.4982,-2.4984,-2.5009,-2.4998,-2.5024,-2.5022,-2.5008,-2.5023,-2.5023,-2.504,-2.5042,-2.5048,-2.5065,-2.5066,-2.5061,-2.5062,-2.5063,-2.5063,0,0,0,0,0,0,0,-2.4942,-2.4946,-2.4982,-2.4981,-2.4983,-2.4988,-2.4991,-2.5003,-2.5023,-2.5009,-2.5011,-2.5015,-2.5041,-2.5047,-2.5049,-2.5067,-2.5061,-2.5063,-2.5063,-2.5064,-2.5092,-2.5092,0,0,0,0,0,0,-2.4939,-2.4945,-2.4981,-2.4983,-2.4964,-2.4988,-2.4993,-2.5001,-2.5023,-2.5026,-2.5015,-2.5015,-2.5045,-2.5048,-2.5051,-2.506,-2.5063,-2.5064,-2.5065,-2.5092,-2.5092,-2.5092,0,0,0,0,0,0,-2.4937,-2.4942,-2.498,-2.4964,-2.497,-2.4989,-2.4998,-2.5001,-2.5008,-2.5027,-2.503,-2.5017,-2.5045,-2.5049,-2.5061,-2.5061,-2.5064,-2.5066,-2.5092,-2.5092,-2.5092,-2.5078,0,0,0,0,0,0,-2.4936,-2.4941,-2.4943,-2.4964,-2.497,-2.4989,-2.4998,-2.5002,-2.501,-2.5011,-2.5031,-2.5034,-2.5046,-2.5059,-2.5062,-2.5063,-2.5067,-2.5092,-2.5092,-2.5092,-2.5078,-2.5078,-2.5077,0,0,0,0,0,-2.4934,-2.4937,-2.4943,-2.4948,-2.4974,-2.4989,-2.4993,-2.5007,-2.501,-2.5013,-2.5025,-2.5033,-2.5061,-2.506,-2.5063,-2.5065,-2.5092,-2.5092,-2.5092,-2.5079,-2.5078,-2.5077,0,0,0,0,0,0,-2.4915,-2.494,-2.4947,-2.4958,-2.4971,-2.4992,-2.4996,-2.5005,-2.5017,-2.5018,-2.5034,-2.5038,-2.5049,-2.5058,-2.5056,-2.5073,-2.5077,-2.5078,-2.5066,-2.5065,-2.5064,-2.5062,-2.5068,0,0,0,0,0,-2.4912,-2.4923,-2.4944,-2.4951,-2.4958,-2.4976,-2.4983,-2.4993,-2.5007,-2.5013,-2.5026,-2.504,-2.5052,-2.5059,-2.5071,-2.508,-2.5085,-2.5083,-2.5082,-2.5082,-2.5082,-2.5089,-2.5089,-2.5092,-2.5092,-2.5092,0,0,-2.4906,-2.4921,-2.4927,-2.4948,-2.496,-2.4971,-2.498,-2.4991,-2.4999,-2.5014,-2.5027,-2.5037,-2.5053,-2.5064,-2.507,-2.5072,-2.5082,-2.5082,-2.5081,-2.5082,-2.5089,-2.5089,-2.5088,-2.5092,-2.5092,-2.5092,0,0,-2.49,-2.4913,-2.4921,-2.4933,-2.4951,-2.4963,-2.4965,-2.4985,-2.4993,-2.5006,-2.5018,-2.5028,-2.5048,-2.5059,-2.5068,-2.5069,-2.5077,-2.5072,-2.5068,-2.5074,-2.5074,-2.5074,-2.5075,-2.5075,-2.5073,-2.5073,-2.5073,0,-2.489,-2.4907,-2.4923,-2.4934,-2.4943,-2.4959,-2.4967,-2.4978,-2.4999,-2.5005,-2.5008,-2.5034,-2.5046,-2.5061,-2.5061,-2.5067,-2.507,-2.507,-2.5073,-2.5073,-2.5073,-2.5074,-2.5074,-2.5072,-2.5072,-2.5072,-2.5072,0,-2.4894,-2.4906,-2.491,-2.4931,-2.4941,-2.495,-2.4968,-2.4976,-2.4986,-2.4998,-2.5011,-2.5026,-2.5042,-2.5047,-2.5055,-2.5063,-2.5064,-2.507,-2.5074,-2.5072,-2.5073,-2.5074,-2.5071,-2.5071,-2.5071,-2.5072,0,0,-2.4876,-2.4907,-2.4909,-2.4919,-2.4941,-2.4951,-2.4961,-2.4978,-2.4985,-2.4999,-2.5008,-2.5026,-2.5032,-2.5041,-2.5052,-2.5058,-2.5059,-2.5063,-2.5063,-2.5062,-2.5069,-2.5065,-2.5065,-2.5065,-2.5065,-2.5065,-2.5068,0,-2.4874,-2.4894,-2.491,-2.4924,-2.4935,-2.4951,-2.4961,-2.4975,-2.4987,-2.4999,-2.5012,-2.5024,-2.5031,-2.5037,-2.5043,-2.5057,-2.506,-2.5057,-2.5074,-2.5074,-2.5069,-2.5066,-2.5061,-2.5063,-2.5068,-2.5068,-2.5069,0,-2.4873,-2.4888,-2.4904,-2.4927,-2.4932,-2.494,-2.4958,-2.4968,-2.4986,-2.4994,-2.5006,-2.5017,-2.503,-2.5034,-2.5051,-2.5049,-2.5057,-2.5065,-2.5065,-2.5067,-2.5071,-2.5068,-2.5063,-2.5064,-2.5069,-2.5069,-2.5069,0,-2.4859,-2.4883,-2.4896,-2.4904,-2.4931,-2.4937,-2.4948,-2.4965,-2.4975,-2.499,-2.4997,-2.5013,-2.5021,-2.5034,-2.5049,-2.5051,-2.5066,-2.5071,-2.5073,-2.5073,-2.5075,-2.5075,-2.5072,-2.508,-2.508,-2.508,-2.508,0,-2.4855,-2.4864,-2.489,-2.4898,-2.4909,-2.4928,-2.4938,-2.4951,-2.4967,-2.4977,-2.4992,-2.5002,-2.5022,-2.5034,-2.5047,-2.506,-2.5063,-2.5071,-2.5074,-2.5069,-2.5069,-2.5075,-2.5075,-2.508,-2.508,-2.508,-2.508,0,-2.484,-2.4858,-2.4874,-2.4898,-2.4905,-2.4912,-2.4933,-2.4941,-2.4955,-2.4969,-2.4973,-2.4994,-2.5009,-2.5027,-2.5047,-2.5056,-2.5068,-2.5073,-2.5063,-2.5064,-2.5066,-2.5066,-2.5068,-2.5069,-2.5075,-2.5075,-2.5075,0,-2.4836,-2.4844,-2.487,-2.4879,-2.489,-2.4904,-2.4914,-2.4933,-2.4943,-2.4965,-2.4971,-2.4988,-2.5002,-2.5026,-2.5043,-2.506,-2.5065,-2.5065,-2.5067,-2.5063,-2.5066,-2.5065,-2.5066,-2.5063,-2.5063,-2.5063,-2.5063,0,-2.4827,-2.4836,-2.4851,-2.487,-2.4882,-2.4897,-2.4913,-2.4919,-2.4941,-2.4952,-2.4969,-2.498,-2.5003,-2.5019,-2.5038,-2.505,-2.506,-2.5062,-2.5064,-2.5059,-2.5053,-2.5057,-2.506,-2.5062,-2.5062,-2.5062,-2.5062,-2.5062,-2.4818,-2.4826,-2.4846,-2.4863,-2.4877,-2.4892,-2.4902,-2.4917,-2.4932,-2.4952,-2.4962,-2.4979,-2.4998,-2.5025,-2.5036,-2.505,-2.5053,-2.5055,-2.5056,-2.5056,-2.5055,-2.5051,-2.5053,-2.5053,-2.5054,-2.5054,-2.5054,0,-2.481,-2.4825,-2.484,-2.4862,-2.4875,-2.4885,-2.4904,-2.4914,-2.4929,-2.4946,-2.4961,-2.4981,-2.4998,-2.5017,-2.5035,-2.5042,-2.5048,-2.5046,-2.5046,-2.5049,-2.5051,-2.5048,-2.5042,-2.5042,-2.5042,-2.5042,-2.5042,-2.5042,-2.4808,-2.4823,-2.4834,-2.4857,-2.4871,-2.4888,-2.4898,-2.4912,-2.4926,-2.4948,-2.4963,-2.4976,-2.4994,-2.5014,-2.503,-2.5036,-2.5042,-2.5039,-2.5046,-2.5047,-2.5048,-2.5049,-2.5047,-2.5041,-2.5041,-2.5043,-2.5043,-2.5043]}]]